Time,TemperatureF,DewpointF,PressureIn,WindDirection,WindDirectionDegrees,WindSpeedMPH,WindSpeedGustMPH,Humidity,HourlyPrecipIn,Conditions,Clouds,dailyrainin,SolarRadiationWatts/m^2,SoftwareType,DateUTC
2016-09-29 00:25:00,58.1,56.0,29.91,East,96,7.0,-999.0,93,-99.99,,,0.00,959,weatherlink.com 1.10,2016-09-29 04:25:00,
2016-09-29 00:40:00,58.0,56.0,29.91,East,89,13.0,-999.0,93,-99.99,,,0.00,964,weatherlink.com 1.10,2016-09-29 04:40:00,
2016-09-29 00:55:00,58.1,56.0,29.91,NE,54,6.0,-999.0,93,-99.99,,,0.02,962,weatherlink.com 1.10,2016-09-29 04:55:00,
2016-09-29 01:10:00,58.0,56.0,29.92,East,79,2.0,-999.0,93,-99.99,,,0.03,959,weatherlink.com 1.10,2016-09-29 05:10:00,
2016-09-29 01:25:00,58.0,56.0,29.91,ENE,62,4.0,-999.0,94,-99.99,,,0.05,966,weatherlink.com 1.10,2016-09-29 05:25:00,
2016-09-29 01:40:00,57.8,56.0,29.91,NNE,31,2.0,-999.0,94,-99.99,,,0.06,966,weatherlink.com 1.10,2016-09-29 05:40:00,
2016-09-29 01:55:00,57.8,56.0,29.91,NE,34,1.0,-999.0,94,-99.99,,,0.07,959,weatherlink.com 1.10,2016-09-29 05:55:00,
2016-09-29 02:10:00,57.6,56.0,29.90,NE,34,2.0,-999.0,95,-99.99,,,0.07,968,weatherlink.com 1.10,2016-09-29 06:10:00,
2016-09-29 02:25:00,57.8,56.0,29.90,NE,34,2.0,-999.0,95,-99.99,,,0.11,964,weatherlink.com 1.10,2016-09-29 06:25:00,
2016-09-29 02:40:00,58.0,57.0,29.89,NNE,27,4.0,-999.0,96,-99.99,,,0.12,964,weatherlink.com 1.10,2016-09-29 06:40:00,
2016-09-29 02:55:00,58.0,57.0,29.89,NNE,17,7.0,-999.0,96,-99.99,,,0.13,961,weatherlink.com 1.10,2016-09-29 06:55:00,
2016-09-29 03:11:00,58.0,57.0,29.88,NNE,20,2.0,-999.0,96,-99.99,,,0.14,962,weatherlink.com 1.10,2016-09-29 07:11:00,
2016-09-29 03:25:00,58.1,57.0,29.88,ESE,107,2.0,-999.0,96,-99.99,,,0.17,959,weatherlink.com 1.10,2016-09-29 07:25:00,
2016-09-29 03:40:00,58.1,57.0,29.88,East,82,4.0,-999.0,96,-99.99,,,0.25,964,weatherlink.com 1.10,2016-09-29 07:40:00,
2016-09-29 03:56:00,58.3,57.0,29.89,ENE,69,9.0,-999.0,96,-99.99,,,0.26,957,weatherlink.com 1.10,2016-09-29 07:56:00,
2016-09-29 04:10:00,58.6,58.0,29.89,NE,51,4.0,-999.0,96,-99.99,,,0.26,964,weatherlink.com 1.10,2016-09-29 08:10:00,
2016-09-29 04:26:00,58.7,58.0,29.89,East,99,7.0,-999.0,96,-99.99,,,0.26,966,weatherlink.com 1.10,2016-09-29 08:26:00,
2016-09-29 04:41:00,58.7,58.0,29.90,ENE,65,2.0,-999.0,97,-99.99,,,0.27,962,weatherlink.com 1.10,2016-09-29 08:41:00,
2016-09-29 04:56:00,58.9,58.0,29.90,NE,54,2.0,-999.0,97,-99.99,,,0.33,961,weatherlink.com 1.10,2016-09-29 08:56:00,
2016-09-29 05:11:00,58.9,58.0,29.90,ENE,78,0.0,-999.0,97,-99.99,,,0.39,962,weatherlink.com 1.10,2016-09-29 09:11:00,
2016-09-29 05:26:00,58.9,58.0,29.90,East,82,4.0,-999.0,97,-99.99,,,0.39,964,weatherlink.com 1.10,2016-09-29 09:26:00,
2016-09-29 05:41:00,58.9,58.0,29.90,NE,44,6.0,-999.0,97,-99.99,,,0.40,962,weatherlink.com 1.10,2016-09-29 09:41:00,
2016-09-29 05:56:00,59.0,58.0,29.91,NNE,27,2.0,-999.0,97,-99.99,,,0.55,957,weatherlink.com 1.10,2016-09-29 09:56:00,
2016-09-29 06:11:00,59.0,58.0,29.91,NE,40,6.0,-999.0,97,-99.99,,,0.79,968,weatherlink.com 1.10,2016-09-29 10:11:00,
2016-09-29 06:26:00,59.2,58.0,29.91,ENE,75,1.0,-999.0,97,-99.99,,,0.82,959,weatherlink.com 1.10,2016-09-29 10:26:00,
2016-09-29 06:41:00,59.2,59.0,29.92,ENE,61,2.0,-999.0,98,-99.99,,,0.86,962,weatherlink.com 1.10,2016-09-29 10:41:00,
2016-09-29 06:56:00,59.2,59.0,29.93,NE,47,7.0,-999.0,98,-99.99,,,0.93,966,weatherlink.com 1.10,2016-09-29 10:56:00,
2016-09-29 07:11:00,59.2,59.0,29.93,ESE,109,2.0,-999.0,98,-99.99,,,0.98,966,weatherlink.com 1.10,2016-09-29 11:11:00,
2016-09-29 07:26:00,59.0,59.0,29.94,ENE,72,4.0,-999.0,98,-99.99,,,1.01,962,weatherlink.com 1.10,2016-09-29 11:26:00,
2016-09-29 07:41:00,59.0,59.0,29.94,East,88,7.0,-999.0,98,-99.99,,,1.02,962,weatherlink.com 1.10,2016-09-29 11:41:00,
2016-09-29 07:56:00,58.9,58.0,29.96,ENE,72,4.0,-999.0,98,-99.99,,,1.02,954,weatherlink.com 1.10,2016-09-29 11:56:00,
2016-09-29 08:11:00,59.0,59.0,29.96,NE,48,1.0,-999.0,99,-99.99,,,1.02,964,weatherlink.com 1.10,2016-09-29 12:11:00,
2016-09-29 08:26:00,59.0,59.0,29.96,ENE,68,4.0,-999.0,99,-99.99,,,1.02,980,weatherlink.com 1.10,2016-09-29 12:26:00,
2016-09-29 08:41:00,59.2,59.0,29.97,ENE,58,0.0,-999.0,99,-99.99,,,1.02,980,weatherlink.com 1.10,2016-09-29 12:41:00,
2016-09-29 08:56:00,59.2,59.0,29.98,ENE,61,0.0,-999.0,100,-99.99,,,1.02,978,weatherlink.com 1.10,2016-09-29 12:56:00,
2016-09-29 09:11:00,59.3,59.0,29.99,ENE,65,0.0,-999.0,100,-99.99,,,1.02,978,weatherlink.com 1.10,2016-09-29 13:11:00,
2016-09-29 09:26:00,59.5,60.0,29.99,ENE,78,0.0,-999.0,100,-99.99,,,1.02,980,weatherlink.com 1.10,2016-09-29 13:26:00,
2016-09-29 09:42:00,59.6,60.0,29.99,East,89,6.0,-999.0,100,-99.99,,,1.02,980,weatherlink.com 1.10,2016-09-29 13:42:00,
2016-09-29 09:56:00,59.6,60.0,30.00,NNE,13,7.0,-999.0,100,-99.99,,,1.02,978,weatherlink.com 1.10,2016-09-29 13:56:00,
2016-09-29 10:12:00,59.9,60.0,30.01,ESE,103,2.0,-999.0,100,-99.99,,,1.02,933,weatherlink.com 1.10,2016-09-29 14:12:00,
2016-09-29 10:27:00,60.4,60.0,30.01,East,89,10.0,-999.0,100,-99.99,,,1.02,1126,weatherlink.com 1.10,2016-09-29 14:27:00,
2016-09-29 10:42:00,61.0,61.0,30.02,East,89,0.0,-999.0,100,-99.99,,,1.02,938,weatherlink.com 1.10,2016-09-29 14:42:00,
2016-09-29 10:57:00,61.0,61.0,30.02,NE,37,4.0,-999.0,100,-99.99,,,1.02,934,weatherlink.com 1.10,2016-09-29 14:57:00,
2016-09-29 11:27:00,59.5,60.0,30.05,East,82,1.0,-999.0,100,-99.99,,,1.02,948,weatherlink.com 1.10,2016-09-29 15:27:00,
2016-09-29 11:42:00,59.2,59.0,30.05,ENE,64,1.0,-999.0,100,-99.99,,,1.02,936,weatherlink.com 1.10,2016-09-29 15:42:00,
2016-09-29 11:57:00,59.6,60.0,30.06,ESE,113,2.0,-999.0,100,-99.99,,,1.02,943,weatherlink.com 1.10,2016-09-29 15:57:00,
2016-09-29 12:12:00,59.9,60.0,30.06,ESE,110,6.0,-999.0,100,-99.99,,,1.02,945,weatherlink.com 1.10,2016-09-29 16:12:00,
2016-09-29 12:27:00,60.5,61.0,30.06,East,93,6.0,-999.0,100,-99.99,,,1.02,920,weatherlink.com 1.10,2016-09-29 16:27:00,
2016-09-29 12:42:00,60.9,61.0,30.05,NE,44,7.0,-999.0,99,-99.99,,,1.02,933,weatherlink.com 1.10,2016-09-29 16:42:00,
2016-09-29 12:57:00,60.4,60.0,30.06,East,93,6.0,-999.0,97,-99.99,,,1.03,948,weatherlink.com 1.10,2016-09-29 16:57:00,
2016-09-29 13:12:00,60.9,60.0,30.06,East,82,2.0,-999.0,97,-99.99,,,1.03,955,weatherlink.com 1.10,2016-09-29 17:12:00,
2016-09-29 13:27:00,60.7,60.0,30.06,NE,34,7.0,-999.0,97,-99.99,,,1.04,962,weatherlink.com 1.10,2016-09-29 17:27:00,
2016-09-29 13:42:00,60.9,60.0,30.06,NNE,20,6.0,-999.0,97,-99.99,,,1.06,915,weatherlink.com 1.10,2016-09-29 17:42:00,
2016-09-29 13:57:00,61.3,61.0,30.06,NNE,31,2.0,-999.0,97,-99.99,,,1.06,943,weatherlink.com 1.10,2016-09-29 17:57:00,
2016-09-29 14:12:00,61.2,60.0,30.05,NE,54,2.0,-999.0,97,-99.99,,,1.06,962,weatherlink.com 1.10,2016-09-29 18:12:00,
2016-09-29 14:27:00,61.3,61.0,30.06,NNE,16,2.0,-999.0,97,-99.99,,,1.06,880,weatherlink.com 1.10,2016-09-29 18:27:00,
2016-09-29 14:43:00,61.8,61.0,30.04,East,86,7.0,-999.0,97,-99.99,,,1.07,941,weatherlink.com 1.10,2016-09-29 18:43:00,
2016-09-29 14:58:00,61.5,61.0,30.05,NE,48,7.0,-999.0,97,-99.99,,,1.08,984,weatherlink.com 1.10,2016-09-29 18:58:00,
2016-09-29 15:13:00,61.3,61.0,30.06,ENE,64,4.0,-999.0,97,-99.99,,,1.09,998,weatherlink.com 1.10,2016-09-29 19:13:00,
2016-09-29 15:28:00,61.3,61.0,30.06,NE,54,6.0,-999.0,97,-99.99,,,1.13,999,weatherlink.com 1.10,2016-09-29 19:28:00,
2016-09-29 15:43:00,61.2,60.0,30.05,East,93,4.0,-999.0,97,-99.99,,,1.19,998,weatherlink.com 1.10,2016-09-29 19:43:00,
2016-09-29 15:57:00,61.3,61.0,30.05,NE,41,6.0,-999.0,97,-99.99,,,1.20,989,weatherlink.com 1.10,2016-09-29 19:57:00,
2016-09-29 16:13:00,61.3,61.0,30.05,NE,40,4.0,-999.0,98,-99.99,,,1.20,978,weatherlink.com 1.10,2016-09-29 20:13:00,
2016-09-29 16:28:00,61.3,61.0,30.05,NNE,17,7.0,-999.0,98,-99.99,,,1.20,968,weatherlink.com 1.10,2016-09-29 20:28:00,
2016-09-29 16:43:00,61.3,61.0,30.05,North,10,13.0,-999.0,98,-99.99,,,1.21,980,weatherlink.com 1.10,2016-09-29 20:43:00,
2016-09-29 16:58:00,61.2,61.0,30.05,NE,41,8.0,-999.0,98,-99.99,,,1.23,999,weatherlink.com 1.10,2016-09-29 20:58:00,